Weather History for Pasco, WA

Change the Weather History Date:

Friday, February 1, 2013

  Actual Average Record
Temperature  
Mean Temperature 42 °F 37 °F  
Max Temperature 56 °F 45 °F 59 °F (2003)
Min Temperature 27 °F 29 °F -12 °F (1996)
Degree Days  
Heating Degree Days 23 28  
Month to date heating degree days 23 28  
Since 1 July heating degree days 2934 3179  
Cooling Degree Days 0 0  
Month to date cooling degree days 0 0  
Year to date cooling degree days 0 0  
Moisture  
Dew Point 33 °F    
Average Humidity 75    
Maximum Humidity 100    
Minimum Humidity 50    
Precipitation  
Precipitation 0.00 in - 0.40 in (1997)
Month to date precipitation 0.00  
Year to date precipitation 0.36  
Snow  
Snow 0.00 in - - ()
Snow Depth 0.00 in    
Sea Level Pressure  
Sea Level Pressure 30.38 in    
Wind  
Wind Speed 2 mph (NNW)    
Max Wind Speed 12 mph    
Max Gust Speed 13 mph    
Visibility 10 miles    
Events      
T = Trace of Precipitation, MM = Missing Value Source: NWS Daily Summary

Daily Weather History Graph

Daily Weather History Graph

Search for Another Location

Airport:

Trip Planner

Search our weather history database for the weather conditions in past years. The results will help you decide how hot, cold, wet, or windy it might be!

Date:

Astronomy

Feb. 01, 2013 Rise Set
Actual Time 7:19 AM PST 5:01 PM PST
Civil Twilight 6:46 AM PST 5:33 PM PST
Nautical Twilight 6:11 AM PST 6:09 PM PST
Astronomical Twilight 5:35 AM PST 6:45 PM PST
Moon 11:40 PM PST (2/1) 9:32 AM PST (2/1)
Length of Visible Light 10h 46m
Length of Day
9h 42m
Waning Gibbous, 69% of the Moon is Illuminated
Feb 1
Waning Gibbous
Feb 3
Last Quarter
Feb 9
New
Feb 17
First Quarter
Feb 25
Full

Hourly Weather History & Observations

Time (PST) Temp. Windchill Dew Point Humidity Pressure Visibility Wind Dir Wind Speed Gust Speed Precip Events Conditions
12:53 AM 39.0 °F 34.0 °F 35.1 °F 86% 30.27 in 10.0 mi SSW 6.9 mph - N/A   Clear
1:53 AM 41.0 °F - 35.1 °F 79% 30.29 in 10.0 mi Calm Calm - N/A   Clear
2:53 AM 30.9 °F - 30.0 °F 96% 30.30 in 10.0 mi Calm Calm - N/A   Clear
3:53 AM 28.9 °F - 28.0 °F 96% 30.30 in 10.0 mi Calm Calm - N/A   Clear
4:53 AM 28.9 °F - 28.0 °F 96% 30.31 in 10.0 mi Calm Calm - N/A   Clear
5:53 AM 28.9 °F - 27.0 °F 92% 30.32 in 10.0 mi Calm Calm - N/A   Clear
7:53 AM 30.0 °F 26.5 °F 28.0 °F 92% 30.36 in 10.0 mi North 3.5 mph - N/A   Clear
8:53 AM 36.0 °F - 33.1 °F 89% 30.38 in 10.0 mi Calm Calm - N/A   Clear
10:53 AM 48.0 °F - 37.9 °F 68% 30.40 in 10.0 mi Calm Calm - N/A   Clear
11:53 AM 50.0 °F - 36.0 °F 59% 30.39 in 10.0 mi Calm Calm - N/A   Clear
1:53 PM 53.1 °F - 36.0 °F 52% 30.38 in 10.0 mi South 3.5 mph - N/A   Clear
2:53 PM 54.0 °F - 36.0 °F 51% 30.38 in 10.0 mi Calm Calm - N/A   Clear
3:53 PM 55.0 °F - 37.0 °F 51% 30.39 in 10.0 mi Calm Calm - N/A   Clear
4:53 PM 50.0 °F - 37.0 °F 61% 30.39 in 10.0 mi NE 3.5 mph - N/A   Clear
5:53 PM 39.9 °F 37.8 °F 35.1 °F 83% 30.40 in 10.0 mi NNW 3.5 mph - N/A   Clear
6:53 PM 37.0 °F 34.5 °F 34.0 °F 89% 30.40 in 10.0 mi North 3.5 mph - N/A   Clear
7:53 PM 34.0 °F 28.8 °F 32.0 °F 92% 30.43 in 10.0 mi NNW 5.8 mph - N/A   Clear
8:53 PM 33.1 °F 26.1 °F 30.9 °F 92% 30.44 in 10.0 mi North 8.1 mph - N/A   Clear
9:53 PM 33.1 °F 27.7 °F 30.9 °F 92% 30.46 in 10.0 mi NW 5.8 mph - N/A   Clear
10:53 PM 32.0 °F - 30.0 °F 92% 30.47 in 10.0 mi Calm Calm - N/A   Clear
11:53 PM 30.0 °F - 28.0 °F 92% 30.49 in 10.0 mi Calm Calm - N/A   Clear